Wind_Speed
2 2 2 2 5 5 4 5 2 5 5 3 8 2 8 7 8 4 12 18 17 20 17 14 13 13 11 11 10 10 10 9 9 9 9 8 5 3 2 2 3 2 2 2 3 3 2 2 2
2 2 2 3 5 6 5 5 8 8 8 9 9 5 4 8 6 8 17 19 21 17 16 13 14 13 11 10 10 9 8 7 7 7 6 5 2 3 2 2 2 1 2 3 3 4 3 2 3
1 1 4 3 2 3 6 8 6 6 5 4 4 3 3 5 3 14 13 21 19 22 16 15 14 11 10 9 8 8 6 6 5 5 5 4 3 3 2 2 2 3 3 3 2 2 3 4 4
2 1 1 4 6 6 6 9 6 7 6 3 5 7 7 6 7 9 19 20 17 16 14 15 13 12 9 8 7 7 5 5 6 6 5 5 4 4 3 3 3 2 2 3 3 3 3 3 4
3 2 2 7 7 7 5 5 1 4 4 4 3 6 8 5 9 17 20 18 16 15 14 13 12 12 10 8 7 7 6 6 6 7 8 8 5 5 5 4 3 4 4 5 4 4 3 4 3
3 4 4 8 6 4 4 1 2 2 4 6 6 8 7 9 15 16 19 16 15 14 12 11 12 11 10 9 7 7 7 7 8 8 7 7 5 5 5 5 5 5 5 5 3 1 1 3 3
5 4 6 6 5 5 4 2 2 2 7 6 6 5 8 12 15 18 18 15 14 14 13 12 10 12 10 9 7 8 9 8 8 8 8 6 6 5 5 5 5 6 4 4 4 1 1 2 3
4 4 4 4 5 3 5 3 3 3 6 7 3 5 10 17 18 18 17 15 14 14 12 12 12 12 9 8 8 8 10 9 9 10 7 6 4 4 5 4 4 5 5 4 5 2 3 3 4
2 4 4 7 5 4 6 5 7 2 8 4 3 4 12 21 20 18 18 16 14 12 12 11 10 10 9 8 9 10 12 12 11 10 7 5 4 3 3 7 7 5 5 3 4 4 5 5 5
5 4 7 6 4 2 5 3 4 5 7 5 6 8 17 23 21 20 18 16 16 14 13 13 11 10 9 9 10 12 12 12 12 9 8 6 6 6 7 5 7 6 7 5 5 6 7 7 8
1 5 7 3 6 4 5 7 4 8 9 4 6 14 20 21 20 19 16 16 17 14 13 12 12 11 10 9 10 14 10 9 10 10 8 6 4 3 2 3 3 4 3 5 3 5 4 7 8
4 2 6 5 1 3 6 2 1 5 7 3 8 17 22 20 19 17 17 17 15 14 12 12 12 13 11 8 9 12 11 10 7 10 9 6 5 5 5 4 5 4 4 5 7 5 7 6 6
5 3 2 1 3 4 4 6 3 7 5 9 16 18 19 18 16 15 15 16 14 14 13 12 13 12 10 10 10 12 12 11 9 8 8 8 7 5 3 4 4 4 4 3 4 5 5 4 6
2 4 1 1 3 4 7 7 4 7 8 13 16 16 16 16 15 14 14 14 14 14 13 12 12 11 11 11 14 17 12 15 12 9 7 10 7 5 5 3 3 3 2 3 5 2 5 5 4
2 7 2 5 5 3 8 9 10 1 13 14 14 14 14 14 14 13 13 13 13 14 12 14 13 11 11 12 15 16 15 16 9 8 9 10 7 5 7 4 3 1 3 3 3 2 2 2 2
5 4 6 5 6 4 8 3 8 7 14 15 15 14 14 14 14 12 11 12 12 14 15 14 13 13 13 14 15 14 16 12 9 7 7 10 7 7 4 3 2 2 1 1 2 3 3 3 4
4 7 7 2 8 2 10 2 9 13 14 14 15 14 14 14 14 13 12 11 12 15 16 15 14 13 13 15 13 12 12 11 9 8 7 9 8 7 8 5 4 1 0 1 3 3 4 6 5
9 11 8 5 3 8 8 10 8 16 17 17 16 15 15 15 15 14 14 13 13 14 16 15 14 14 16 13 13 12 11 10 10 9 8 8 7 9 9 7 7 3 3 4 5 1 4 5 4
10 11 10 3 1 6 9 11 9 14 17 18 19 18 17 15 12 14 16 16 15 15 17 17 17 15 16 16 14 13 11 10 10 10 10 8 6 9 10 6 7 5 6 5 4 4 3 2 1
10 10 4 5 0 5 9 13 12 16 21 21 21 20 19 15 14 16 18 18 18 18 18 19 18 17 17 15 14 12 11 10 10 10 10 9 7 7 7 8 7 8 6 7 5 5 2 2 2
11 5 7 4 1 7 9 13 7 14 20 23 24 22 21 20 18 20 20 21 19 19 19 20 19 19 18 15 15 14 12 13 11 11 11 9 10 9 7 7 6 8 4 6 6 5 4 2 3
10 4 4 2 7 4 2 4 3 5 8 16 25 27 25 23 21 17 21 21 20 19 18 20 20 21 19 20 16 15 11 14 12 9 10 11 11 11 7 6 6 7 4 7 4 4 5 3 3
3 4 3 4 7 7 7 5 7 3 5 8 15 24 26 22 22 20 22 21 18 17 17 19 21 22 20 20 19 16 15 11 10 12 12 9 9 10 7 8 6 7 7 6 7 5 5 4 3
1 7 6 5 6 5 3 4 4 4 5 2 4 14 23 22 21 21 21 19 18 17 16 17 20 22 23 21 22 19 16 14 12 12 10 9 8 8 10 9 8 6 7 5 5 6 6 5 5
9 12 6 4 5 3 6 3 7 5 4 5 4 13 21 21 22 21 20 20 19 19 17 17 19 21 22 22 20 19 19 17 14 14 11 10 9 9 10 10 11 8 7 5 5 7 6 6 6
14 13 9 4 5 6 6 2 3 4 7 2 3 11 18 21 22 20 19 20 20 19 19 17 18 19 22 23 22 20 20 17 16 16 14 11 11 10 11 11 11 8 7 6 5 7 8 8 7
8 10 9 10 9 8 2 3 6 3 4 3 7 13 17 19 19 18 17 18 21 21 20 19 17 18 20 21 23 22 23 22 18 17 17 14 12 11 12 11 10 8 9 8 7 5 7 11 8
14 6 8 9 6 8 7 4 8 4 5 5 8 13 16 18 19 17 17 18 19 19 19 18 17 16 17 19 20 21 22 23 23 20 21 19 17 14 13 13 12 11 11 10 12 10 8 11 9
6 11 10 8 5 6 5 4 6 3 6 8 8 12 16 18 18 19 18 17 17 18 19 19 18 17 16 17 18 19 19 21 23 22 22 21 20 18 17 16 15 13 12 12 13 12 13 11 11
11 8 11 9 12 7 9 7 4 3 5 9 11 11 14 15 16 16 17 17 18 18 19 19 18 19 18 18 18 18 18 19 19 21 22 21 22 22 20 18 16 16 15 14 15 15 14 14 13
Wind_Direction
11 56 349 333 245 241 131 100 97 113 101 80 110 66 55 35 9 44 144 164 169 163 156 153 139 133 137 133 133 135 136 132 128 133 139 143 137 127 127 143 145 144 129 147 172 174 196 196 175
205 308 326 273 264 203 121 106 95 74 92 109 119 111 73 77 50 112 144 160 159 152 152 155 145 141 140 136 135 129 135 134 134 143 155 159 169 144 150 144 149 194 145 125 137 148 160 160 146
159 323 279 303 303 305 129 101 95 88 106 150 113 66 33 51 76 135 155 151 152 159 143 175 151 144 141 152 145 140 134 123 144 160 170 161 165 163 172 146 139 137 137 137 147 152 139 136 147
312 309 241 329 2 89 127 99 90 114 103 126 119 85 82 79 118 150 149 151 151 143 155 162 154 147 151 159 153 149 136 127 132 136 157 158 158 179 150 151 147 143 156 150 132 120 103 131 138
323 273 320 73 88 114 137 101 85 151 119 127 161 110 98 78 126 141 147 151 155 154 154 157 159 155 158 172 170 161 158 149 146 140 133 131 130 142 159 168 143 131 128 123 124 115 124 119 128
272 283 18 33 91 143 159 153 290 177 155 135 130 120 96 122 140 147 149 156 155 159 160 172 166 161 164 177 172 168 176 149 147 152 143 145 144 139 135 136 137 133 132 128 131 143 149 148 180
325 315 16 5 52 173 185 176 114 198 150 124 131 123 124 138 149 150 151 161 167 158 172 158 164 168 162 173 166 179 179 166 170 152 161 159 157 159 149 149 154 152 159 154 145 205 358 39 294
318 291 337 6 356 87 155 133 142 174 91 121 148 138 157 160 154 153 153 160 170 169 165 163 164 167 162 179 187 183 177 169 167 159 183 179 167 170 174 162 178 172 178 177 163 219 234 221 221
306 268 339 356 334 67 153 168 176 137 144 113 98 90 139 159 155 157 156 165 171 167 165 171 169 169 178 179 197 177 173 174 163 175 186 169 140 142 178 193 201 177 132 234 230 227 246 242 218
289 307 2 346 339 358 165 168 156 151 144 142 139 128 146 157 164 166 167 173 176 175 175 175 176 186 182 172 184 157 170 173 173 190 169 153 169 168 168 189 196 187 183 211 269 277 262 250 241
18 330 331 345 304 280 190 134 206 195 187 153 170 157 158 164 173 174 170 177 178 179 182 189 183 185 174 179 185 174 161 168 175 178 159 167 169 175 142 203 190 199 222 218 253 325 289 257 248
284 318 317 341 302 185 198 84 343 212 72 85 137 156 158 166 177 180 176 181 192 188 185 181 190 192 179 177 168 162 168 175 169 167 157 179 141 181 166 187 207 211 214 254 255 274 262 260 273
309 352 329 336 159 202 189 194 171 186 116 120 132 149 159 168 180 180 182 187 198 192 185 189 193 189 185 175 170 165 171 169 170 168 180 176 169 178 173 193 185 209 234 280 270 289 224 265 237
4 323 271 215 197 215 225 198 258 185 151 138 145 153 161 167 175 183 191 195 199 196 187 189 189 192 189 177 183 169 169 178 163 178 194 176 170 191 198 190 208 221 259 264 253 255 262 279 275
296 296 251 203 212 212 212 241 224 256 174 158 160 164 168 175 178 188 192 198 201 198 195 191 189 196 191 185 172 178 174 173 176 191 193 187 188 210 187 212 202 241 250 307 262 273 328 276 274
282 253 319 122 191 183 220 139 167 177 192 173 176 178 183 187 188 194 195 197 195 193 191 189 187 195 187 184 181 189 178 174 191 199 202 201 199 200 196 210 215 233 169 259 253 247 251 266 238
184 324 339 327 207 198 220 229 162 175 189 188 187 193 197 196 200 201 201 196 193 193 193 193 188 190 191 197 189 184 194 187 199 203 200 218 216 212 190 214 241 208 252 271 272 248 248 265 267
333 322 329 337 158 230 242 244 170 192 198 203 205 209 207 208 208 204 201 198 194 196 195 193 195 193 192 196 193 192 199 201 204 205 202 219 227 224 216 228 233 256 282 296 291 259 266 271 275
307 310 309 5 23 251 254 262 242 203 214 212 215 217 214 212 203 207 202 200 196 197 198 199 193 194 186 193 193 197 204 204 210 207 214 213 220 221 223 223 251 253 267 273 306 278 297 291 290
284 299 352 120 88 234 275 271 252 226 217 220 214 219 220 203 205 199 201 200 199 200 202 200 200 196 197 195 191 194 203 220 215 207 220 217 226 224 219 228 245 256 252 276 278 277 237 263 281
265 287 360 342 283 233 282 258 240 227 225 220 225 222 221 213 202 206 201 201 200 199 201 201 202 200 195 192 193 199 204 209 209 216 221 224 224 219 227 259 245 256 239 272 274 284 259 264 286
284 26 287 279 278 348 321 323 155 186 212 223 220 222 220 214 216 207 197 199 201 201 200 199 199 198 198 199 201 198 205 215 214 222 224 218 214 220 240 248 254 249 247 266 260 272 235 241 250
12 303 291 309 280 315 141 262 110 196 215 199 214 218 217 212 207 198 194 197 196 198 197 197 197 198 197 201 196 211 203 213 216 212 223 213 223 226 229 249 245 248 254 283 250 260 221 232 215
260 237 232 223 249 173 86 334 278 41 352 310 211 206 198 201 197 194 190 191 191 193 192 196 198 201 202 203 209 210 207 202 207 211 216 224 226 240 253 238 247 248 254 278 253 239 236 224 227
227 248 249 249 217 89 120 308 322 339 344 326 237 181 182 190 184 183 185 189 190 191 192 196 198 202 203 204 207 213 207 206 213 215 220 225 234 241 245 240 253 249 246 246 234 236 225 245 241
209 267 292 282 288 356 138 256 359 313 303 8 141 168 172 177 179 183 187 189 192 192 193 195 201 202 205 206 209 213 212 214 219 225 214 229 238 242 242 252 231 231 234 230 253 237 231 248 259
192 235 290 294 232 255 74 20 128 94 123 106 118 155 166 174 182 185 186 187 189 193 196 197 199 202 205 209 213 215 217 214 220 219 227 235 245 244 256 246 233 230 232 229 236 239 267 230 250
256 332 221 216 269 261 132 264 57 137 142 126 149 157 166 175 184 188 192 189 190 194 196 199 202 204 205 207 214 218 222 226 228 231 234 235 237 243 247 247 246 238 246 240 246 239 261 248 247
175 224 236 300 304 300 225 130 40 77 160 157 152 162 166 173 184 190 189 192 191 191 196 199 202 204 208 208 212 217 222 229 235 235 241 243 244 242 246 245 248 249 249 246 254 259 251 242 241
264 261 219 232 188 240 313 314 89 116 171 171 163 167 160 170 177 182 187 188 189 191 194 200 203 206 213 215 219 223 228 230 232 239 241 244 244 246 245 244 245 247 249 252 253 248 244 237 236
Height
1520 1521 1521 1521 1519 1506 1514 1515 1510 1512 1514 1518 1520 1521 1522 1525 1525 1537 1541 1540 1542 1546 1549 1552 1552 1551 1554 1555 1557 1559 1561 1562 1564 1565 1566 1567 1567 1568 1569 1569 1569 1569 1570 1570 1571 1571 1572 1572 1573
1524 1522 1522 1520 1515 1511 1518 1511 1513 1515 1519 1520 1523 1524 1523 1528 1533 1537 1540 1541 1544 1548 1553 1553 1553 1554 1555 1557 1559 1560 1562 1564 1565 1566 1567 1568 1568 1569 1569 1570 1570 1570 1570 1571 1572 1572 1573 1574 1574
1523 1522 1521 1514 1512 1512 1521 1514 1516 1519 1521 1521 1523 1525 1526 1532 1536 1538 1541 1544 1547 1547 1553 1553 1554 1555 1556 1558 1559 1562 1563 1565 1566 1566 1567 1568 1568 1569 1569 1570 1570 1571 1572 1572 1573 1573 1574 1575 1575
1524 1525 1523 1515 1519 1516 1518 1517 1520 1521 1523 1524 1523 1525 1532 1535 1538 1539 1542 1546 1549 1551 1555 1553 1555 1557 1558 1560 1561 1563 1564 1565 1566 1567 1567 1568 1569 1570 1571 1571 1571 1572 1573 1573 1574 1574 1575 1575 1575
1525 1522 1512 1516 1521 1519 1519 1520 1521 1518 1522 1522 1524 1528 1533 1537 1538 1541 1544 1549 1552 1555 1556 1555 1556 1558 1559 1561 1562 1564 1565 1566 1567 1567 1568 1569 1570 1571 1572 1572 1573 1573 1574 1574 1575 1575 1575 1576 1577
1522 1521 1514 1519 1519 1519 1520 1522 1522 1522 1523 1525 1525 1528 1535 1538 1541 1543 1546 1551 1553 1556 1558 1557 1557 1559 1560 1561 1563 1565 1565 1567 1568 1568 1569 1569 1571 1572 1573 1574 1574 1575 1575 1576 1576 1577 1577 1577 1577
1523 1517 1519 1517 1518 1520 1519 1523 1525 1520 1521 1523 1526 1526 1537 1539 1542 1544 1547 1552 1554 1556 1559 1558 1559 1559 1560 1562 1564 1565 1566 1567 1568 1570 1570 1571 1572 1573 1574 1575 1575 1576 1577 1577 1578 1578 1578 1578 1578
1523 1520 1517 1515 1519 1522 1521 1524 1526 1521 1524 1527 1527 1525 1534 1539 1542 1545 1548 1553 1555 1557 1558 1559 1559 1560 1563 1563 1564 1565 1566 1568 1569 1570 1571 1573 1573 1574 1575 1576 1577 1577 1578 1578 1578 1578 1579 1579 1579
1525 1518 1517 1517 1518 1519 1523 1522 1525 1525 1524 1526 1528 1529 1531 1537 1542 1546 1549 1552 1555 1556 1559 1561 1561 1561 1565 1564 1564 1565 1567 1568 1570 1571 1572 1574 1578 1577 1577 1577 1577 1578 1578 1579 1579 1579 1579 1580 1580
1521 1519 1520 1520 1519 1519 1521 1522 1523 1525 1525 1526 1529 1532 1534 1538 1542 1545 1547 1552 1555 1556 1559 1561 1563 1564 1564 1564 1563 1566 1567 1568 1570 1571 1573 1577 1578 1579 1580 1579 1578 1578 1578 1578 1579 1580 1579 1580 1581
1522 1522 1520 1520 1523 1522 1520 1523 1524 1521 1519 1521 1524 1530 1533 1538 1542 1544 1547 1551 1554 1556 1557 1559 1562 1562 1563 1564 1564 1565 1569 1570 1570 1571 1573 1578 1579 1579 1580 1581 1580 1581 1579 1578 1579 1579 1578 1580 1581
1522 1523 1523 1523 1524 1523 1522 1525 1525 1520 1521 1523 1525 1529 1533 1537 1541 1544 1547 1550 1553 1554 1556 1559 1560 1560 1562 1564 1565 1567 1568 1570 1573 1572 1574 1578 1579 1579 1580 1582 1582 1580 1582 1579 1579 1579 1577 1577 1578
1519 1521 1523 1524 1525 1524 1525 1524 1525 1522 1525 1526 1528 1531 1534 1537 1541 1543 1546 1549 1552 1552 1554 1557 1558 1559 1561 1563 1565 1567 1570 1571 1574 1575 1576 1579 1580 1580 1581 1580 1581 1581 1579 1579 1578 1578 1576 1576 1576
1522 1521 1522 1523 1523 1523 1524 1523 1524 1523 1525 1528 1530 1532 1535 1537 1540 1543 1546 1549 1551 1552 1553 1556 1558 1559 1561 1563 1564 1565 1569 1569 1573 1576 1577 1576 1579 1580 1581 1580 1580 1580 1579 1579 1579 1578 1577 1576 1576
1523 1518 1518 1519 1521 1521 1524 1524 1521 1523 1524 1527 1530 1532 1535 1537 1539 1541 1544 1547 1549 1551 1553 1556 1558 1559 1560 1562 1564 1565 1567 1570 1573 1575 1575 1576 1577 1578 1579 1580 1580 1581 1580 1579 1578 1577 1576 1575 1576
1520 1519 1517 1513 1519 1520 1522 1519 1520 1522 1523 1524 1527 1531 1534 1536 1538 1540 1542 1544 1547 1550 1552 1554 1557 1559 1560 1561 1564 1566 1567 1571 1574 1575 1577 1576 1577 1578 1579 1580 1581 1580 1579 1580 1580 1579 1578 1578 1576
1515 1518 1516 1512 1515 1515 1518 1516 1517 1519 1520 1522 1525 1528 1531 1534 1536 1538 1541 1543 1545 1547 1550 1553 1555 1558 1560 1560 1564 1566 1568 1570 1573 1574 1576 1576 1577 1577 1578 1580 1581 1580 1580 1581 1580 1581 1579 1578 1577
1521 1514 1510 1512 1509 1514 1511 1511 1512 1515 1517 1519 1521 1523 1527 1530 1533 1536 1538 1541 1543 1546 1548 1551 1554 1556 1558 1561 1563 1566 1569 1571 1572 1573 1575 1575 1576 1576 1577 1580 1579 1579 1580 1580 1580 1578 1579 1578 1577
1515 1512 1510 1505 1508 1511 1508 1507 1504 1510 1513 1514 1517 1519 1520 1524 1529 1532 1536 1538 1541 1543 1545 1548 1551 1553 1555 1559 1563 1566 1568 1570 1571 1572 1573 1574 1574 1575 1576 1578 1578 1578 1579 1578 1577 1577 1577 1578 1576
1511 1512 1503 1506 1508 1511 1504 1502 1497 1500 1504 1508 1511 1514 1517 1521 1526 1529 1532 1535 1537 1540 1543 1545 1548 1550 1553 1558 1561 1565 1567 1569 1569 1571 1572 1572 1573 1574 1575 1575 1577 1576 1578 1577 1576 1576 1577 1577 1575
1501 1503 1503 1508 1505 1505 1506 1493 1488 1490 1496 1502 1506 1509 1512 1516 1520 1523 1528 1532 1534 1536 1539 1542 1545 1549 1552 1557 1559 1560 1563 1565 1568 1569 1570 1572 1572 1573 1573 1573 1574 1574 1574 1576 1574 1575 1575 1576 1575
1505 1498 1500 1504 1505 1507 1502 1502 1485 1484 1489 1492 1497 1502 1505 1510 1515 1519 1523 1528 1531 1533 1535 1539 1542 1546 1549 1553 1558 1559 1562 1563 1565 1567 1570 1571 1571 1571 1571 1572 1572 1572 1573 1573 1573 1573 1573 1573 1575
1500 1501 1499 1500 1499 1503 1498 1502 1480 1484 1481 1484 1489 1492 1499 1503 1509 1514 1519 1524 1528 1532 1533 1536 1540 1543 1547 1550 1554 1557 1559 1562 1563 1564 1567 1568 1569 1569 1571 1570 1571 1571 1570 1571 1571 1571 1571 1574 1574
1501 1499 1495 1494 1492 1516 1501 1505 1480 1481 1482 1482 1484 1486 1492 1499 1505 1511 1516 1521 1525 1529 1531 1534 1537 1540 1543 1547 1550 1553 1557 1560 1562 1564 1565 1568 1569 1569 1567 1568 1569 1569 1568 1568 1570 1570 1570 1571 1572
1500 1494 1504 1505 1496 1506 1493 1507 1485 1477 1478 1480 1481 1484 1489 1496 1502 1508 1513 1518 1522 1526 1529 1531 1533 1536 1539 1543 1547 1550 1553 1556 1558 1560 1563 1565 1566 1566 1566 1565 1565 1567 1566 1566 1567 1567 1568 1569 1571
1496 1490 1498 1522 1506 1494 1485 1498 1483 1477 1478 1480 1482 1484 1489 1494 1500 1506 1511 1515 1519 1523 1526 1529 1530 1533 1536 1540 1544 1546 1549 1553 1555 1557 1560 1562 1563 1564 1563 1562 1563 1564 1565 1565 1565 1566 1567 1568 1568
1488 1501 1478 1490 1486 1496 1482 1475 1474 1476 1475 1479 1481 1485 1489 1494 1499 1504 1508 1512 1516 1519 1522 1525 1528 1530 1533 1537 1540 1542 1545 1548 1552 1554 1554 1557 1559 1560 1559 1559 1561 1562 1563 1563 1564 1564 1564 1565 1566
1486 1478 1495 1487 1514 1511 1486 1487 1481 1476 1477 1478 1480 1483 1487 1492 1497 1501 1506 1510 1513 1517 1520 1524 1526 1528 1531 1534 1537 1539 1542 1544 1547 1549 1550 1552 1554 1555 1556 1557 1558 1560 1560 1560 1560 1561 1562 1562 1564
1489 1489 1485 1476 1482 1493 1497 1483 1466 1470 1472 1476 1479 1481 1485 1490 1495 1499 1503 1507 1511 1514 1517 1520 1523 1526 1528 1531 1534 1536 1538 1540 1542 1544 1546 1547 1548 1550 1551 1553 1554 1556 1557 1557 1558 1558 1558 1559 1561
1468 1471 1473 1489 1495 1482 1486 1482 1463 1467 1470 1474 1477 1482 1483 1488 1493 1497 1501 1504 1507 1510 1513 1516 1519 1522 1525 1528 1529 1532 1534 1536 1538 1539 1540 1542 1543 1545 1547 1549 1550 1552 1552 1553 1553 1554 1556 1556 1557